Canadian, TX

11:54 AM CST on December 12, 2019 (GMT -0600)
Hemphill County

Weather History for KHHF - October, 2019

Change the Weather History Date:

Wednesday, October 9, 2019

  Actual Average (KPPA) Record (KPPA)
Temperature  
Mean Temperature 75 °F -  
Max Temperature 89 °F 74 °F 99 °F (1979)
Min Temperature 61 °F 45 °F 29 °F (1970)
Cooling Degree Days 10    
Growing Degree Days 25 (Base 50)    
Moisture  
Dew Point 57 °F    
Average Humidity 58    
Maximum Humidity 84    
Minimum Humidity 32    
Precipitation  
Precipitation 0.00 in - - ()
Sea Level Pressure  
Sea Level Pressure 29.72 in    
Wind  
Wind Speed 20 mph (South)    
Max Wind Speed 25 mph    
Max Gust Speed 33 mph    
Visibility 10 miles    
Events      
Averages and records for this station are not official NWS values.
T = Trace of Precipitation, MM = Missing Value Source: NWS Daily Summary

Daily Weather History Graph

Daily Weather History Graph

Search for Another Location

Airport or City:

Astronomy

Oct. 09, 2019 Rise Set
Actual Time 7:43 AM CDT 7:14 PM CDT
Civil Twilight 7:17 AM CDT 7:39 PM CDT
Nautical Twilight 6:47 AM CDT 8:09 PM CDT
Astronomical Twilight 6:18 AM CDT 8:39 PM CDT
Moon 5:37 PM CDT (10/9) 3:42 AM CDT (10/9)
Length of Visible Light 12h 22m
Length of Day
11h 31m
Waxing Gibbous, 85% of the Moon is Illuminated
Oct 9
Waxing Gibbous
Oct 13
Full
Oct 21
Last Quarter
Oct 27
New
Nov 4
First Quarter

Hourly Weather History & Observations

Time (CDT) Temp. Heat Index Dew Point Humidity Pressure Visibility Wind Dir Wind Speed Gust Speed Precip Events Conditions
12:15 AM 67.5 °F - 50.4 °F 54% 29.84 in 10.0 mi South 24.2 mph 33.4 mph N/A   Clear
12:35 AM 67.1 °F - 50.2 °F 55% 29.84 in 10.0 mi South 23.0 mph 32.2 mph N/A   Clear
12:55 AM 67.1 °F - 50.4 °F 55% 29.82 in 10.0 mi South 24.2 mph 32.2 mph N/A   Clear
1:15 AM 66.6 °F - 50.4 °F 56% 29.82 in 10.0 mi South 23.0 mph 33.4 mph N/A   Clear
1:55 AM 66.0 °F - 50.5 °F 57% 29.81 in 10.0 mi South 23.0 mph 29.9 mph N/A   Clear
2:15 AM 65.7 °F - 50.7 °F 58% 29.81 in 10.0 mi South 24.2 mph 31.1 mph N/A   Clear
2:35 AM 65.1 °F - 50.9 °F 60% 29.81 in 10.0 mi South 23.0 mph 29.9 mph N/A   Clear
2:55 AM 64.6 °F - 50.9 °F 61% 29.81 in 10.0 mi South 23.0 mph 29.9 mph N/A   Clear
3:15 AM 64.2 °F - 51.1 °F 62% 29.81 in 10.0 mi South 19.6 mph 28.8 mph N/A   Scattered Clouds
3:35 AM 63.9 °F - 51.3 °F 64% 29.80 in 10.0 mi South 20.7 mph 28.8 mph N/A   Mostly Cloudy
3:55 AM 63.5 °F - 51.3 °F 64% 29.79 in 10.0 mi South 19.6 mph 32.2 mph N/A   Scattered Clouds
4:15 AM 62.8 °F - 51.1 °F 66% 29.79 in 10.0 mi South 16.1 mph 29.9 mph N/A   Clear
4:35 AM 62.6 °F - 50.9 °F 66% 29.78 in 10.0 mi South 20.7 mph 28.8 mph N/A   Clear
4:55 AM 62.2 °F - 50.2 °F 65% 29.78 in 10.0 mi South 17.3 mph 26.5 mph N/A   Clear
5:15 AM 61.9 °F - 49.6 °F 64% 29.77 in 10.0 mi South 25.3 mph 31.1 mph N/A   Clear
5:35 AM 61.5 °F - 49.6 °F 65% 29.77 in 10.0 mi South 21.9 mph 27.6 mph N/A   Clear
5:55 AM 61.2 °F - 50.2 °F 67% 29.77 in 10.0 mi South 18.4 mph 25.3 mph N/A   Clear
6:35 AM 61.0 °F - 51.8 °F 72% 29.79 in 10.0 mi South 16.1 mph 23.0 mph N/A   Clear
6:55 AM 61.0 °F - 52.5 °F 74% 29.77 in 10.0 mi South 19.6 mph 25.3 mph N/A   Clear
7:15 AM 61.7 °F - 54.7 °F 78% 29.77 in 10.0 mi South 19.6 mph 26.5 mph N/A   Clear
7:35 AM 61.7 °F - 55.8 °F 81% 29.77 in 10.0 mi SSW 13.8 mph 23.0 mph N/A   Clear
7:55 AM 61.9 °F - 57.0 °F 84% 29.76 in 10.0 mi SSW 12.7 mph 18.4 mph N/A   Clear
8:15 AM 62.6 °F - 57.7 °F 84% 29.76 in 10.0 mi South 19.6 mph 24.2 mph N/A   Clear
8:55 AM 64.6 °F - 59.5 °F 84% 29.76 in 10.0 mi SSW 19.6 mph 26.5 mph N/A   Clear
9:15 AM 66.2 °F - 60.1 °F 81% 29.76 in 10.0 mi SSW 20.7 mph 28.8 mph N/A   Clear
9:35 AM 67.5 °F - 60.3 °F 78% 29.76 in 10.0 mi SSW 18.4 mph 29.9 mph N/A   Clear
9:55 AM 68.9 °F - 60.8 °F 75% 29.77 in 10.0 mi SSW 19.6 mph 24.2 mph N/A   Clear
10:15 AM 70.7 °F - 60.8 °F 71% 29.77 in 10.0 mi SSW 18.4 mph 24.2 mph N/A   Clear
10:35 AM 73.0 °F - 60.8 °F 65% 29.77 in 10.0 mi SSW 17.3 mph 25.3 mph N/A   Clear
10:55 AM 74.1 °F - 60.8 °F 63% 29.77 in 10.0 mi SSW 18.4 mph 23.0 mph N/A   Clear
11:15 AM 75.6 °F - 60.8 °F 60% 29.76 in 10.0 mi SSW 17.3 mph 25.3 mph N/A   Clear
11:35 AM 77.2 °F - 61.0 °F 57% 29.76 in 10.0 mi SSW 16.1 mph 21.9 mph N/A   Clear
11:55 AM 78.1 °F - 61.0 °F 56% 29.75 in 10.0 mi SSW 15.0 mph 25.3 mph N/A   Clear
12:15 PM 79.9 °F - 60.8 °F 52% 29.74 in 10.0 mi SW 15.0 mph 21.9 mph N/A   Clear
12:35 PM 80.8 °F 81.6 °F 61.2 °F 51% 29.73 in 10.0 mi SSW 16.1 mph 23.0 mph N/A   Clear
12:55 PM 82.4 °F 83.0 °F 61.3 °F 49% 29.72 in 10.0 mi SSW 17.3 mph 23.0 mph N/A   Clear
1:15 PM 83.5 °F 83.9 °F 61.2 °F 47% 29.71 in 10.0 mi SSW 17.3 mph 24.2 mph N/A   Clear
1:35 PM 84.2 °F 84.4 °F 60.4 °F 45% 29.70 in 10.0 mi SW 16.1 mph 23.0 mph N/A   Clear
1:55 PM 84.6 °F 84.8 °F 61.2 °F 45% 29.69 in 10.0 mi South 16.1 mph 24.2 mph N/A   Clear
2:15 PM 85.8 °F 85.9 °F 60.8 °F 43% 29.68 in 10.0 mi South 15.0 mph 21.9 mph N/A   Clear
2:35 PM 86.2 °F 86.3 °F 61.0 °F 43% 29.67 in 10.0 mi SSW 20.7 mph 31.1 mph N/A   Clear
2:55 PM 86.5 °F 86.5 °F 60.6 °F 42% 29.66 in 10.0 mi SSW 21.9 mph 28.8 mph N/A   Clear
3:15 PM 86.7 °F 86.8 °F 61.0 °F 42% 29.65 in 10.0 mi South 20.7 mph 28.8 mph N/A   Clear
3:35 PM 87.8 °F 87.6 °F 60.6 °F 40% 29.64 in 10.0 mi South 23.0 mph 28.8 mph N/A   Clear
3:55 PM 88.3 °F 87.6 °F 58.6 °F 37% 29.63 in 10.0 mi SSW 17.3 mph 25.3 mph N/A   Clear
4:15 PM 88.0 °F 86.7 °F 57.4 °F 35% 29.63 in 10.0 mi South 23.0 mph 28.8 mph N/A   Clear
4:35 PM 88.7 °F 87.1 °F 56.3 °F 33% 29.62 in 10.0 mi SSW 21.9 mph 26.5 mph N/A   Clear
4:55 PM 89.6 °F 87.9 °F 55.8 °F 32% 29.62 in 10.0 mi SSW 18.4 mph 25.3 mph N/A   Clear
5:15 PM 87.4 °F 85.7 °F 54.7 °F 33% 29.61 in 10.0 mi South 21.9 mph 29.9 mph N/A   Clear
5:35 PM 86.0 °F 84.2 °F 54.1 °F 33% 29.61 in 10.0 mi SSW 17.3 mph 23.0 mph N/A   Clear
5:55 PM 87.3 °F 85.5 °F 54.5 °F 33% 29.62 in 10.0 mi SSW 20.7 mph 27.6 mph N/A   Clear
6:15 PM 85.1 °F 83.6 °F 54.5 °F 35% 29.62 in 10.0 mi SSW 12.7 mph 25.3 mph N/A   Clear
6:35 PM 85.1 °F 83.8 °F 55.4 °F 36% 29.62 in 10.0 mi SSW 13.8 mph - N/A   Clear
6:55 PM 84.2 °F 83.0 °F 55.6 °F 37% 29.63 in 10.0 mi SSW 11.5 mph - N/A   Clear
7:15 PM 81.3 °F 80.9 °F 54.9 °F 40% 29.63 in 10.0 mi SSW 9.2 mph - N/A   Clear
7:35 PM - - - N/A% 29.63 in 10.0 mi North - - N/A   Scattered Clouds
7:55 PM 77.9 °F - 54.7 °F 45% 29.65 in 10.0 mi South 19.6 mph 28.8 mph N/A   Mostly Cloudy
8:15 PM 73.9 °F - 57.4 °F 56% 29.65 in 10.0 mi South 15.0 mph 21.9 mph N/A   Scattered Clouds
8:35 PM 73.9 °F - 58.3 °F 58% 29.65 in 10.0 mi South 9.2 mph 19.6 mph N/A   Clear
8:55 PM 74.7 °F - 60.1 °F 60% 29.65 in 10.0 mi South 11.5 mph - N/A   Clear
9:15 PM 75.7 °F - 60.6 °F 59% 29.65 in 10.0 mi South 12.7 mph - N/A   Scattered Clouds
9:35 PM 75.6 °F - 61.0 °F 60% 29.66 in 10.0 mi South 10.4 mph - N/A   Clear
9:55 PM 75.2 °F - 61.9 °F 63% 29.66 in 10.0 mi SSE 9.2 mph - N/A   Clear
10:15 PM 73.8 °F - 61.5 °F 65% 29.66 in 10.0 mi South 11.5 mph - N/A   Clear
10:35 PM 72.9 °F - 61.9 °F 68% 29.66 in 10.0 mi SSE 16.1 mph 20.7 mph N/A   Clear
10:55 PM 72.0 °F - 62.8 °F 73% 29.66 in 10.0 mi SSE 17.3 mph - N/A   Clear
11:15 PM 71.2 °F - 63.5 °F 76% 29.66 in 10.0 mi South 16.1 mph 21.9 mph N/A   Clear
11:35 PM 71.1 °F - 63.7 °F 77% 29.65 in 10.0 mi South 12.7 mph 23.0 mph N/A   Clear
11:55 PM 70.0 °F - 63.5 °F 80% 29.66 in 10.0 mi SSW 11.5 mph - N/A   Clear